Weather History for KMNH - December, 2013

Change the Weather History Date:

Sunday, December 15, 2013

  Actual Average (KDEN) Record (KDEN)
Temperature  
Mean Temperature 34 °F 29 °F  
Max Temperature 50 °F 42 °F 68 °F (1921)
Min Temperature 19 °F 17 °F -19 °F (2008)
Degree Days  
Heating Degree Days 30 36  
Month to date heating degree days 519  
Since 1 July heating degree days 1901  
Cooling Degree Days 0 0  
Month to date cooling degree days 0  
Year to date cooling degree days 769  
Moisture  
Dew Point 14 °F    
Average Humidity 43    
Maximum Humidity 74    
Minimum Humidity 24    
Precipitation  
Precipitation 0.00 in 0.01 in 0.30 in (1988)
Month to date precipitation 0.18  
Year to date precipitation 14.13  
Snow  
Snow 0.00 in - - ()
Month to date snowfall  
Since 1 July snowfall  
Snow Depth -    
Sea Level Pressure  
Sea Level Pressure 30.16 in    
Wind  
Wind Speed 8 mph (West)    
Max Wind Speed 14 mph    
Max Gust Speed 15 mph    
Visibility 10 miles    
Events      
T = Trace of Precipitation, MM = Missing Value Source: NWS Daily Summary

Daily Weather History Graph

Daily Weather History Graph

Search for Another Location

Airport or City:

Trip Planner

Search our weather history database for the weather conditions in past years. The results will help you decide how hot, cold, wet, or windy it might be!

Date:

Astronomy

Dec. 15, 2013 Rise Set
Actual Time 7:11 AM MST 4:36 PM MST
Civil Twilight 6:41 AM MST 5:06 PM MST
Nautical Twilight 6:07 AM MST 5:40 PM MST
Astronomical Twilight 5:34 AM MST 6:13 PM MST
Moon 3:42 PM MST (12/15) 5:30 AM MST (12/15)
Length of Visible Light 10h 25m
Length of Day
9h 25m
Waxing Gibbous, 98% of the Moon is Illuminated
Dec 15
Waxing Gibbous
Dec 17
Full
Dec 25
Last Quarter
Jan 1
New
Jan 7
First Quarter

Hourly Weather History & Observations

Time (MST) Temp. Windchill Dew Point Humidity Pressure Visibility Wind Dir Wind Speed Gust Speed Precip Events Conditions
12:12 AM 28.4 °F 21.2 °F 10.4 °F 47% 30.15 in 10.0 mi WSW 6.9 mph - N/A   Clear
12:32 AM 28.4 °F 22.2 °F 10.4 °F 47% 30.14 in 10.0 mi SW 5.8 mph - N/A   Clear
12:52 AM 26.6 °F 20.0 °F 10.4 °F 51% 30.14 in 10.0 mi WSW 5.8 mph - N/A   Clear
1:12 AM 28.4 °F 21.2 °F 10.4 °F 47% 30.14 in 10.0 mi WSW 6.9 mph - N/A   Clear
1:32 AM 26.6 °F 19.1 °F 12.2 °F 55% 30.14 in 10.0 mi West 6.9 mph - N/A   Clear
1:52 AM 26.6 °F 17.5 °F 12.2 °F 55% 30.15 in 10.0 mi WSW 9.2 mph - N/A   Clear
2:12 AM 28.4 °F 20.4 °F 12.2 °F 51% 30.15 in 10.0 mi WSW 8.1 mph - N/A   Clear
2:32 AM 26.6 °F 19.1 °F 12.2 °F 55% 30.15 in 10.0 mi SW 6.9 mph - N/A   Clear
2:52 AM 26.6 °F 20.0 °F 14.0 °F 59% 30.15 in 10.0 mi SW 5.8 mph - N/A   Clear
3:11 AM 26.6 °F 20.0 °F 14.0 °F 59% 30.15 in 10.0 mi West 5.8 mph - N/A   Clear
3:32 AM 28.4 °F 23.3 °F 15.8 °F 59% 30.15 in 10.0 mi West 4.6 mph - N/A   Clear
3:52 AM 28.4 °F 23.3 °F 15.8 °F 59% 30.15 in 10.0 mi West 4.6 mph - N/A   Clear
4:11 AM 26.6 °F 20.0 °F 15.8 °F 64% 30.14 in 10.0 mi West 5.8 mph - N/A   Clear
4:32 AM 24.8 °F 16.9 °F 14.0 °F 64% 30.14 in 10.0 mi West 6.9 mph - N/A   Clear
4:52 AM 26.6 °F 20.0 °F 15.8 °F 64% 30.13 in 10.0 mi WSW 5.8 mph - N/A   Clear
5:12 AM 23.0 °F 14.7 °F 14.0 °F 68% 30.15 in 10.0 mi West 6.9 mph - N/A   Clear
5:32 AM 28.4 °F 22.2 °F 14.0 °F 55% 30.15 in 10.0 mi SW 5.8 mph - N/A   Clear
5:52 AM 19.4 °F 11.5 °F 12.2 °F 74% 30.16 in 10.0 mi South 5.8 mph - N/A   Clear
6:12 AM 26.6 °F 18.2 °F 14.0 °F 59% 30.17 in 10.0 mi SW 8.1 mph - N/A   Clear
6:32 AM 24.8 °F 16.1 °F 12.2 °F 59% 30.17 in 10.0 mi SW 8.1 mph - N/A   Clear
6:52 AM 28.4 °F 20.4 °F 12.2 °F 51% 30.17 in 10.0 mi SW 8.1 mph - N/A   Clear
7:11 AM 23.0 °F 13.9 °F 12.2 °F 63% 30.17 in 10.0 mi SSW 8.1 mph - N/A   Clear
7:32 AM 28.4 °F 18.5 °F 12.2 °F 51% 30.17 in 10.0 mi SW 11.5 mph - N/A   Clear
7:52 AM 26.6 °F 18.2 °F 14.0 °F 59% 30.18 in 10.0 mi SSW 8.1 mph - N/A   Clear
8:12 AM 28.4 °F 21.2 °F 15.8 °F 59% 30.18 in 10.0 mi SSW 6.9 mph - N/A   Clear
8:31 AM 32.0 °F 25.6 °F 15.8 °F 51% 30.19 in 10.0 mi SSW 6.9 mph - N/A   Clear
8:52 AM 33.8 °F 27.7 °F 15.8 °F 48% 30.19 in 10.0 mi SSW 6.9 mph - N/A   Clear
9:12 AM 37.4 °F 30.8 °F 17.6 °F 45% 30.19 in 10.0 mi SW 9.2 mph - N/A   Clear
9:32 AM 39.2 °F 33.0 °F 15.8 °F 39% 30.20 in 10.0 mi SW 9.2 mph - N/A   Clear
9:51 AM 42.8 °F 37.5 °F 15.8 °F 34% 30.19 in 10.0 mi SW 9.2 mph - N/A   Clear
10:12 AM 44.6 °F 40.7 °F 15.8 °F 31% 30.19 in 10.0 mi WSW 6.9 mph - N/A   Clear
10:32 AM 44.6 °F 40.2 °F 15.8 °F 31% 30.19 in 10.0 mi West 8.1 mph - N/A   Clear
10:52 AM 46.4 °F 42.9 °F 17.6 °F 32% 30.19 in 10.0 mi West 6.9 mph - N/A   Clear
11:12 AM 46.4 °F 42.9 °F 15.8 °F 29% 30.18 in 10.0 mi WNW 6.9 mph - N/A   Clear
11:32 AM 48.2 °F - 14.0 °F 25% 30.17 in 10.0 mi NW 8.1 mph - N/A   Clear
11:52 AM 48.2 °F - 15.8 °F 27% 30.17 in 10.0 mi NW 8.1 mph - N/A   Clear
12:11 PM 48.2 °F - 15.8 °F 27% 30.16 in 10.0 mi West 9.2 mph - N/A   Clear
12:32 PM 50.0 °F - 14.0 °F 24% 30.15 in 10.0 mi West 8.1 mph - N/A   Clear
12:52 PM 50.0 °F - 14.0 °F 24% 30.15 in 10.0 mi NW 13.8 mph - N/A   Clear
1:12 PM 50.0 °F - 14.0 °F 24% 30.15 in 10.0 mi NW 10.4 mph - N/A   Clear
1:32 PM 50.0 °F - 14.0 °F 24% 30.15 in 10.0 mi NW 11.5 mph - N/A   Clear
1:51 PM 50.0 °F - 14.0 °F 24% 30.15 in 10.0 mi NW 8.1 mph - N/A   Clear
2:12 PM 50.0 °F - 17.6 °F 28% 30.15 in 10.0 mi NNW 6.9 mph - N/A   Clear
2:32 PM 48.2 °F - 17.6 °F 30% 30.15 in 10.0 mi WNW 8.1 mph - N/A   Clear
2:52 PM 46.4 °F 42.4 °F 17.6 °F 32% 30.15 in 10.0 mi WNW 8.1 mph - N/A   Clear
3:12 PM 48.2 °F - 17.6 °F 30% 30.15 in 10.0 mi NW 8.1 mph - N/A   Clear
3:31 PM 48.2 °F - 17.6 °F 30% 30.15 in 10.0 mi NW 5.8 mph - N/A   Clear
3:52 PM 42.8 °F 38.6 °F 17.6 °F 36% 30.16 in 10.0 mi WNW 6.9 mph - N/A   Clear
4:12 PM 42.8 °F 38.0 °F 15.8 °F 34% 30.16 in 10.0 mi NW 8.1 mph - N/A   Clear
4:31 PM 39.2 °F 33.6 °F 15.8 °F 39% 30.16 in 10.0 mi WNW 8.1 mph - N/A   Clear
4:51 PM 35.6 °F 29.2 °F 17.6 °F 48% 30.16 in 10.0 mi West 8.1 mph - N/A   Clear
5:11 PM 37.4 °F 32.1 °F 14.0 °F 38% 30.16 in 10.0 mi WNW 6.9 mph - N/A   Clear
5:32 PM 37.4 °F 32.1 °F 14.0 °F 38% 30.16 in 10.0 mi WNW 6.9 mph - N/A   Clear
5:52 PM 37.4 °F 32.8 °F 14.0 °F 38% 30.16 in 10.0 mi WNW 5.8 mph - N/A   Clear
6:12 PM 33.8 °F 28.6 °F 14.0 °F 44% 30.15 in 10.0 mi West 5.8 mph - N/A   Clear
6:32 PM 35.6 °F 29.2 °F 12.2 °F 38% 30.16 in 10.0 mi West 8.1 mph - N/A   Clear
6:51 PM 32.0 °F 24.8 °F 14.0 °F 48% 30.17 in 10.0 mi WSW 8.1 mph - N/A   Clear
7:12 PM 32.0 °F 23.6 °F 14.0 °F 48% 30.17 in 10.0 mi WSW 10.4 mph - N/A   Clear
7:32 PM 33.8 °F 25.8 °F 12.2 °F 41% 30.16 in 10.0 mi WSW 10.4 mph - N/A   Clear
7:51 PM 35.6 °F 29.2 °F 8.6 °F 33% 30.16 in 10.0 mi SW 8.1 mph - N/A   Clear
8:12 PM 35.6 °F 29.2 °F 8.6 °F 33% 30.16 in 10.0 mi SW 8.1 mph - N/A   Clear
8:32 PM 35.6 °F 28.0 °F 8.6 °F 33% 30.16 in 10.0 mi WSW 10.4 mph - N/A   Clear
8:52 PM 32.0 °F 23.6 °F 10.4 °F 41% 30.16 in 10.0 mi West 10.4 mph - N/A   Clear
9:11 PM 32.0 °F 25.6 °F 10.4 °F 41% 30.17 in 10.0 mi West 6.9 mph - N/A   Clear
9:32 PM 33.8 °F 27.0 °F 10.4 °F 38% 30.17 in 10.0 mi West 8.1 mph - N/A   Clear
9:52 PM 33.8 °F 25.3 °F 12.2 °F 41% 30.16 in 10.0 mi WSW 11.5 mph - N/A   Clear
10:12 PM 35.6 °F 28.0 °F 12.2 °F 38% 30.16 in 10.0 mi WSW 10.4 mph 15.0 mph N/A   Clear
10:32 PM 33.8 °F 24.8 °F 12.2 °F 41% 30.16 in 10.0 mi WSW 12.7 mph - N/A   Clear
10:52 PM 32.0 °F 23.0 °F 12.2 °F 44% 30.16 in 10.0 mi West 11.5 mph - N/A   Clear
11:12 PM 32.0 °F 22.5 °F 12.2 °F 44% 30.16 in 10.0 mi WSW 12.7 mph - N/A   Clear
11:32 PM 33.8 °F 24.8 °F 12.2 °F 41% 30.15 in 10.0 mi WSW 12.7 mph - N/A   Clear
11:51 PM 33.8 °F 25.8 °F 10.4 °F 38% 30.15 in 10.0 mi WSW 10.4 mph - N/A   Clear